[[{"header":{"parameterUnit":"m.s-1","parameterCategory":1,"la1":30.2991,"la2":30.254,"lo1":-89.0895,"lo2":-89.0444,"dy":0.0017,"dx":0.0017,"nx":28,"ny":28,"refTime":"2025-02-12T09:00:00:Z","depth":0,"parameterNumber":2,"parameterNumberName":"U-component_of_WINDS"},"data":[0,0,0,0,0,0,0,0,0,0,0,0,0,0,0,0,0,0,0,0,0,0,0,0,0,0,0,0,0,0,0,0,0,0,0,0,0,0,0,0,0,0,0,0,0,0,0,0,0,0,0,0,0,0,0,0,0,0,-4.2333,-4.2333,0,-4.2364,-4.2364,-4.2365,-4.2239,-4.2235,-4.2231,-4.2228,-4.2261,-4.2265,-4.2269,0,0,0,0,0,0,0,0,0,0,0,0,0,-4.2164,-4.2167,-4.2333,-4.2333,-4.2333,-4.2364,-4.2364,-4.2365,-4.2239,-4.2235,-4.223,-4.2226,-4.2259,-4.2264,-4.227,0,0,0,0,0,0,0,0,0,0,0,0,0,-4.222,-4.2169,-4.2333,-4.2274,-4.227,-4.2364,-4.2364,-4.2365,-4.224,-4.2235,-4.2229,-4.2224,-4.2258,-4.2264,-4.227,-4.2422,0,0,-4.229,-4.2293,0,0,0,0,0,0,0,0,-4.2217,-4.2227,-4.2283,-4.2279,-4.2273,-4.2292,-4.2317,-4.2384,-4.2242,-4.2251,-4.2228,-4.2221,-4.2276,-4.228,-4.2298,-4.2424,-4.2425,-4.2291,-4.2295,-4.2298,-4.23,0,0,0,0,0,0,0,-4.2214,-4.2225,-4.2345,-4.2284,-4.2278,-4.2247,-4.2249,-4.2329,-4.2295,-4.225,-4.2241,-4.2246,-4.2272,-4.2293,-4.2298,-4.2426,-4.2291,-4.2297,-4.2301,-4.2303,-4.2677,-4.2682,0,0,0,0,0,0,-4.2217,-4.2222,-4.2344,-4.2346,-4.2231,-4.2254,-4.2256,-4.2291,-4.2293,-4.2288,-4.2251,-4.224,-4.2284,-4.2291,-4.2299,-4.2477,-4.2298,-4.2304,-4.2308,-4.2671,-4.2678,-4.2684,0,0,0,0,0,0,-4.2214,-4.2229,-4.2343,-4.2282,-4.2294,-4.2263,-4.2304,-4.2295,-4.2315,-4.2294,-4.2287,-4.2279,-4.228,-4.229,-4.2392,-4.2476,-4.2307,-4.2313,-4.2664,-4.2673,-4.2681,-4.2835,0,0,0,0,0,0,-4.221,-4.2229,-4.2287,-4.2284,-4.2297,-4.2436,-4.2309,-4.23,-4.2327,-4.2313,-4.2318,-4.2313,-4.2276,-4.2383,-4.2399,-4.2482,-4.2318,-4.2656,-4.2668,-4.2678,-4.2822,-4.2848,-4.287,0,0,0,0,0,-4.2204,-4.2329,-4.229,-4.2306,-4.2369,-4.2441,-4.2449,-4.2404,-4.2334,-4.2392,-4.2378,-4.2313,-4.2464,-4.2395,-4.2411,-4.2498,-4.2651,-4.2664,-4.2678,-4.2812,-4.2843,-4.287,0,0,0,0,0,0,-4.2343,-4.2328,-4.2285,-4.2412,-4.2429,-4.242,-4.2492,-4.2439,-4.2476,-4.2462,-4.2404,-4.2406,-4.2519,-4.2518,-4.2441,-4.2645,-4.2545,-4.2563,-4.2642,-4.2671,-4.2695,-4.2693,-4.2323,0,0,0,0,0,-4.2389,-4.2449,-4.2432,-4.2546,-4.2557,-4.2523,-4.2553,-4.2516,-4.2531,-4.2538,-4.2532,-4.2549,-4.26,-4.2635,-4.2681,-4.2821,-4.282,-4.2888,-4.2912,-4.2932,-4.2948,-4.3022,-4.3052,-4.2729,-4.2729,-4.2729,0,0,-4.2484,-4.2482,-4.2524,-4.2574,-4.2583,-4.2646,-4.253,-4.2602,-4.2649,-4.2549,-4.2646,-4.2642,-4.2657,-4.2779,-4.2832,-4.2782,-4.3037,-4.2949,-4.2965,-4.2971,-4.3039,-4.307,-4.3097,-4.2738,-4.2736,-4.2735,0,0,-4.2689,-4.2694,-4.279,-4.2801,-4.2815,-4.2791,-4.2814,-4.2813,-4.2806,-4.2902,-4.2828,-4.2883,-4.2972,-4.2986,-4.3005,-4.3214,-4.3156,-4.323,-4.3356,-4.3429,-4.3454,-4.3476,-4.3552,-4.3579,-4.3246,-4.3247,-4.3247,0,-4.2806,-4.2898,-4.2846,-4.2923,-4.2947,-4.2858,-4.2955,-4.2968,-4.2997,-4.3016,-4.2958,-4.3068,-4.3072,-4.3196,-4.3247,-4.3265,-4.329,-4.3231,-4.3455,-4.3477,-4.3497,-4.3568,-4.3596,-4.3256,-4.3255,-4.3254,-4.3253,0,-4.3041,-4.3106,-4.3182,-4.3212,-4.3244,-4.333,-4.3291,-4.3329,-4.3289,-4.3272,-4.337,-4.3372,-4.3416,-4.3442,-4.3404,-4.3561,-4.3529,-4.3464,-4.3364,-4.3537,-4.3603,-4.363,-4.3269,-4.3265,-4.3263,-4.326,0,0,-4.3337,-4.3335,-4.3364,-4.3376,-4.3385,-4.3434,-4.3516,-4.3559,-4.3594,-4.3616,-4.3684,-4.3761,-4.37,-4.3722,-4.3684,-4.3748,-4.3913,-4.3675,-4.3674,-4.372,-4.4086,-4.4136,-4.4168,-4.3874,-4.3879,-4.3883,-4.4085,0,-4.354,-4.368,-4.3634,-4.3777,-4.3836,-4.3752,-4.3823,-4.3836,-4.3821,-4.387,-4.3853,-4.3909,-4.3824,-4.3837,-4.3895,-4.3881,-4.3986,-4.3865,-4.3937,-4.394,-4.3938,-4.4203,-4.4256,-4.4447,-4.411,-4.4115,-4.4118,0,-4.3795,-4.3827,-4.3976,-4.3973,-4.3996,-4.4061,-4.4097,-4.4144,-4.4156,-4.4141,-4.4164,-4.4113,-4.4192,-4.409,-4.4199,-4.4118,-4.4144,-4.4141,-4.4148,-4.4154,-4.4041,-4.4217,-4.4506,-4.4536,-4.4158,-4.4154,-4.4152,0,-4.3998,-4.4078,-4.4177,-4.4189,-4.4189,-4.4236,-4.4238,-4.4245,-4.4274,-4.4304,-4.4322,-4.4361,-4.4384,-4.4415,-4.4376,-4.4305,-4.4491,-4.4386,-4.4481,-4.4483,-4.4526,-4.4524,-4.4825,-4.4541,-4.454,-4.454,-4.4539,0,-4.423,-4.4324,-4.4268,-4.4329,-4.4432,-4.4377,-4.4481,-4.4473,-4.4479,-4.4537,-4.4466,-4.4522,-4.4465,-4.4516,-4.4485,-4.4581,-4.4591,-4.4581,-4.4572,-4.4588,-4.459,-4.4606,-4.4592,-4.4547,-4.4546,-4.4544,-4.4543,0,-4.4475,-4.444,-4.4543,-4.4533,-4.4533,-4.4609,-4.4601,-4.4657,-4.4635,-4.471,-4.4724,-4.4692,-4.4748,-4.471,-4.4767,-4.4746,-4.4871,-4.4843,-4.4867,-4.486,-4.4958,-4.495,-4.5281,-4.5322,-4.5011,-4.5014,-4.5016,0,-4.4626,-4.4696,-4.4694,-4.4727,-4.4733,-4.4788,-4.4817,-4.4765,-4.4798,-4.4816,-4.487,-4.4919,-4.4956,-4.5049,-4.5031,-4.5073,-4.5046,-4.5159,-4.5052,-4.5066,-4.5049,-4.5046,-4.5053,-4.5182,-4.5185,-4.5188,-4.5191,0,-4.4898,-4.4877,-4.492,-4.4958,-4.4994,-4.5021,-4.5043,-4.5074,-4.5022,-4.5062,-4.5118,-4.5147,-4.5203,-4.5253,-4.5288,-4.5289,-4.5232,-4.5224,-4.5248,-4.5267,-4.5278,-4.5274,-4.4928,-4.5217,-4.5214,-4.5213,-4.5211,-4.521,-4.5101,-4.5159,-4.5166,-4.5217,-4.5227,-4.5249,-4.5301,-4.5286,-4.5332,-4.5374,-4.534,-4.5407,-4.5416,-4.5456,-4.5465,-4.5516,-4.547,-4.5505,-4.5515,-4.5525,-4.5539,-4.5269,-4.5522,-4.5521,-4.552,-4.552,-4.5519,0,-4.537,-4.537,-4.5417,-4.5449,-4.5489,-4.5429,-4.545,-4.5487,-4.5547,-4.556,-4.5597,-4.5661,-4.5709,-4.5693,-4.5736,-4.578,-4.5754,-4.5793,-4.579,-4.5791,-4.5577,-4.5552,-4.5812,-4.5812,-4.5812,-4.5812,-4.5812,-4.5812,-4.5515,-4.5611,-4.5591,-4.5691,-4.5689,-4.5754,-4.5771,-4.579,-4.58,-4.5874,-4.5913,-4.5903,-4.5904,-4.5946,-4.5987,-4.5981,-4.6,-4.6049,-4.6034,-4.5835,-4.5806,-4.5778,-4.5755,-4.6053,-4.6053,-4.6243,-4.6245,-4.6246]},{"header":{"parameterUnit":"m.s-1","parameterCategory":1,"la1":30.2991,"la2":30.254,"lo1":-89.0895,"lo2":-89.0444,"dy":0.0017,"dx":0.0017,"nx":28,"ny":28,"refTime":"2025-02-12T09:00:00:Z","depth":0,"parameterNumber":3,"parameterNumberName":"V-component_of_WINDS"},"data":[0,0,0,0,0,0,0,0,0,0,0,0,0,0,0,0,0,0,0,0,0,0,0,0,0,0,0,0,0,0,0,0,0,0,0,0,0,0,0,0,0,0,0,0,0,0,0,0,0,0,0,0,0,0,0,0,0,0,-6.2923,-6.2924,0,-6.3029,-6.3031,-6.3032,-6.2972,-6.2969,-6.2966,-6.2963,-6.3067,-6.3072,-6.3078,0,0,0,0,0,0,0,0,0,0,0,0,0,-6.266,-6.2665,-6.2922,-6.2924,-6.2925,-6.3029,-6.3031,-6.3032,-6.2972,-6.2968,-6.2965,-6.2961,-6.3065,-6.3071,-6.3078,0,0,0,0,0,0,0,0,0,0,0,0,0,-6.2771,-6.2667,-6.2922,-6.2908,-6.2908,-6.3029,-6.3031,-6.3032,-6.2973,-6.2968,-6.2964,-6.296,-6.3063,-6.3071,-6.3079,-6.3219,0,0,-6.3104,-6.3108,0,0,0,0,0,0,0,0,-6.2765,-6.2781,-6.2909,-6.2909,-6.2909,-6.2983,-6.2976,-6.3095,-6.2974,-6.2948,-6.2963,-6.2958,-6.3042,-6.3052,-6.3081,-6.3224,-6.3228,-6.3105,-6.311,-6.3114,-6.3116,0,0,0,0,0,0,0,-6.2757,-6.2776,-6.2964,-6.2911,-6.2911,-6.2894,-6.2905,-6.2998,-6.3018,-6.295,-6.2946,-6.2959,-6.3041,-6.3073,-6.3083,-6.323,-6.3105,-6.3112,-6.3117,-6.3121,-6.3489,-6.3494,0,0,0,0,0,0,-6.2751,-6.277,-6.2961,-6.2968,-6.2825,-6.2902,-6.2914,-6.2963,-6.3017,-6.3021,-6.2963,-6.2956,-6.3062,-6.3074,-6.3087,-6.3253,-6.3114,-6.3121,-6.3126,-6.3485,-6.349,-6.3496,0,0,0,0,0,0,-6.2746,-6.2769,-6.2957,-6.2868,-6.289,-6.2912,-6.2967,-6.2968,-6.3,-6.3027,-6.303,-6.2993,-6.3058,-6.3075,-6.3186,-6.3255,-6.3125,-6.3133,-6.3479,-6.3486,-6.3493,-6.3587,0,0,0,0,0,0,-6.2739,-6.2767,-6.2822,-6.287,-6.2895,-6.3057,-6.2971,-6.2973,-6.3015,-6.3007,-6.3056,-6.306,-6.3056,-6.3174,-6.3195,-6.3264,-6.3139,-6.3473,-6.3482,-6.3491,-6.3577,-6.3596,-6.3612,0,0,0,0,0,-6.2729,-6.2844,-6.2826,-6.2849,-6.2965,-6.3061,-6.3076,-6.3071,-6.3021,-6.3075,-6.3092,-6.3058,-6.3245,-6.3186,-6.3208,-6.3282,-6.3468,-6.348,-6.349,-6.357,-6.3592,-6.3612,0,0,0,0,0,0,-6.2802,-6.285,-6.283,-6.2963,-6.3009,-6.3051,-6.3119,-6.3096,-6.3155,-6.3145,-6.3135,-6.3146,-6.3262,-6.3283,-6.3217,-6.3419,-6.3348,-6.3364,-6.3401,-6.3423,-6.344,-6.3432,-6.3146,0,0,0,0,0,-6.2834,-6.2911,-6.2947,-6.3061,-6.3085,-6.3098,-6.314,-6.3133,-6.3178,-6.3197,-6.3222,-6.3267,-6.3335,-6.338,-6.3445,-6.358,-6.3588,-6.3641,-6.3659,-6.3673,-6.3686,-6.3758,-6.3781,-6.3531,-6.3531,-6.3531,0,0,-6.2901,-6.2936,-6.2984,-6.3076,-6.3111,-6.3188,-6.3115,-6.32,-6.3256,-6.3209,-6.3316,-6.3336,-6.3384,-6.3508,-6.3564,-6.3529,-6.3757,-6.3687,-6.3698,-6.3704,-6.3771,-6.3795,-6.3816,-6.3539,-6.3537,-6.3536,0,0,-6.306,-6.3096,-6.3194,-6.323,-6.3283,-6.3291,-6.3315,-6.3361,-6.3372,-6.348,-6.3446,-6.3511,-6.363,-6.3666,-6.3699,-6.3871,-6.3841,-6.3892,-6.3983,-6.4052,-6.4072,-6.4089,-6.4149,-6.4171,-6.3906,-6.3906,-6.3906,0,-6.3135,-6.3252,-6.3247,-6.3334,-6.3375,-6.3337,-6.3435,-6.347,-6.3541,-6.3569,-6.3529,-6.3677,-6.3707,-6.3837,-6.3879,-6.3908,-6.3933,-6.3887,-6.407,-6.4087,-6.4103,-6.4161,-6.4183,-6.3912,-6.3911,-6.3911,-6.391,0,-6.3341,-6.3422,-6.3495,-6.3566,-6.3614,-6.3707,-6.3713,-6.3762,-6.375,-6.3762,-6.387,-6.3905,-6.3975,-6.4006,-6.3994,-6.4134,-6.4111,-6.4071,-6.4,-6.4133,-6.4187,-6.4209,-6.392,-6.3918,-6.3916,-6.3915,0,0,-6.355,-6.3617,-6.3644,-6.3675,-6.3731,-6.3792,-6.3881,-6.3952,-6.3994,-6.4043,-6.4117,-6.4217,-6.4181,-6.4219,-6.4211,-6.4272,-6.4404,-6.4224,-6.4225,-6.4256,-6.4559,-6.4588,-6.4614,-6.4385,-6.4389,-6.4392,-6.4554,0,-6.3713,-6.3872,-6.3869,-6.4015,-6.4089,-6.4053,-6.4131,-6.4172,-6.4185,-6.4247,-6.426,-6.4332,-6.4278,-6.4301,-6.436,-6.4376,-6.4465,-6.4364,-6.4451,-6.4454,-6.444,-6.4642,-6.4673,-6.4825,-6.4575,-6.4579,-6.4581,0,-6.3924,-6.3983,-6.4137,-6.4181,-6.4211,-6.4282,-6.4345,-6.4406,-6.4451,-6.4455,-6.4498,-6.448,-6.4568,-6.4495,-6.4615,-6.4546,-6.4581,-6.4594,-6.46,-6.4607,-6.4526,-6.4654,-6.4873,-6.4896,-6.4614,-6.4612,-6.4609,0,-6.406,-6.4177,-6.4284,-6.4312,-6.4366,-6.4416,-6.444,-6.4481,-6.4523,-6.4577,-6.4604,-6.4668,-6.4702,-6.4751,-6.4749,-6.4696,-6.487,-6.4797,-6.4875,-6.4875,-6.4913,-6.4911,-6.5141,-6.4937,-6.4937,-6.4936,-6.4936,0,-6.4242,-6.4338,-6.4346,-6.4412,-6.4517,-6.4511,-6.4614,-6.4633,-6.467,-6.4737,-6.471,-6.4773,-6.4767,-6.483,-6.4829,-6.4928,-6.4944,-6.4949,-6.4947,-6.4951,-6.495,-6.4974,-6.4963,-6.4942,-6.4941,-6.494,-6.4939,0,-6.4412,-6.4422,-6.4536,-6.4578,-6.459,-6.4666,-6.47,-6.4761,-6.4771,-6.4856,-6.4876,-6.4891,-6.4964,-6.4967,-6.505,-6.5049,-6.5169,-6.5157,-6.5155,-6.5152,-6.5229,-6.5222,-6.5482,-6.5515,-6.5291,-6.5293,-6.5295,0,-6.4527,-6.46,-6.465,-6.4693,-6.4721,-6.4792,-6.4835,-6.4831,-6.4876,-6.4933,-6.4986,-6.5057,-6.5113,-6.523,-6.5247,-6.531,-6.5298,-6.5385,-6.5307,-6.5308,-6.5298,-6.5293,-6.53,-6.5399,-6.5402,-6.5404,-6.5406,0,-6.473,-6.4731,-6.4795,-6.4861,-6.4913,-6.4964,-6.5011,-6.5048,-6.5049,-6.5101,-6.5176,-6.522,-6.5305,-6.5374,-6.5436,-6.5458,-6.5432,-6.543,-6.5451,-6.5455,-6.5451,-6.5453,-6.5195,-6.5424,-6.5422,-6.5421,-6.542,-6.5419,-6.4875,-6.4938,-6.4983,-6.5054,-6.5089,-6.5134,-6.5193,-6.5211,-6.5274,-6.5344,-6.5337,-6.542,-6.5461,-6.5541,-6.5568,-6.5631,-6.5601,-6.5632,-6.5639,-6.5647,-6.5655,-6.5442,-6.5642,-6.5641,-6.5641,-6.564,-6.564,0,-6.5076,-6.5103,-6.5169,-6.5236,-6.5292,-6.5264,-6.5315,-6.5362,-6.5436,-6.5477,-6.5533,-6.5618,-6.5685,-6.5707,-6.5772,-6.5818,-6.5807,-6.5834,-6.5831,-6.5836,-6.5678,-6.5653,-6.5842,-6.5842,-6.5842,-6.5842,-6.5842,-6.5842,-6.5187,-6.5291,-6.5297,-6.5417,-6.5442,-6.5524,-6.5555,-6.5595,-6.5628,-6.5725,-6.5781,-6.5796,-6.5829,-6.5895,-6.5954,-6.5959,-6.5983,-6.6016,-6.6015,-6.5867,-6.5847,-6.5828,-6.5804,-6.6021,-6.6021,-6.6167,-6.6168,-6.6169]}]]